Simultaneous Nadir Overpasses (SNOs) Predictions

Prediction of SNOs between NOAA-19 and METOP-C Satellite Orbit:

Table of predicted SNOs for the next 14.0 days since TLE Epoch: 10/1/2022
Index Date (NOAA-19) Time (NOAA-19) Lat,Lon (NOAA-19) SZA (NOAA-19 ) Date (METOP-C) Time (METOP-C) Lat,Lon (METOP-C) SZA (METOP-C ) Distance(km) Time Diff (sec)
1 10/11/2022 06:44:43 -80.90, -67.51 90.30 10/11/2022 06:45:55 -80.90, -67.67 90.28 2.78 72
2 10/11/2022 07:35:47 80.90, 99.60 89.71 10/11/2022 07:36:35 80.90, 99.62 89.73 0.34 48
3 10/11/2022 08:26:43 -80.90, -93.12 90.28 10/11/2022 08:27:17 -80.89, -93.19 90.28 1.45 34
4 10/11/2022 09:17:46 80.90, 74.37 89.76 10/11/2022 09:17:56 80.91, 74.46 89.78 1.95 10
5 10/11/2022 10:08:42 -80.90,-118.35 90.23 10/11/2022 10:08:38 -80.90,-118.35 90.23 0.44 4
6 10/11/2022 10:59:46 80.90, 48.77 89.78 10/11/2022 10:59:18 80.90, 48.94 89.78 2.95 28
7 10/11/2022 11:50:42 -80.90,-143.96 90.21 10/11/2022 11:50:00 -80.89,-143.87 90.23 1.76 42



Historial Predications of SNOs between NOAA-19 and METOP-C
